QPF
0.00 0.00 0.00 0.00 0.00 0.00 0.00 0.00 0.00 0.00 0.00 0.00 0.00 0.00 0.00 0.00 0.00 0.00 0.00 0.00 0.00 0.00 0.01 0.01 0.02 0.04 0.04 0.03 0.02 0.01 0.01 0.01 0.01 0.00 0.00 0.00 0.00 0.00 0.00 0.00 0.01 0.00 0.00 0.00
0.00 0.00 0.00 0.00 0.00 0.00 0.00 0.00 0.00 0.00 0.00 0.00 0.00 0.00 0.00 0.00 0.00 0.00 0.00 0.00 0.01 0.01 0.01 0.02 0.03 0.03 0.04 0.04 0.02 0.02 0.01 0.01 0.01 0.01 0.01 0.01 0.00 0.00 0.00 0.00 0.01 0.00 0.00 0.00
0.00 0.00 0.00 0.00 0.00 0.00 0.00 0.00 0.00 0.00 0.00 0.00 0.00 0.00 0.00 0.00 0.00 0.00 0.00 0.01 0.01 0.02 0.02 0.03 0.03 0.03 0.03 0.03 0.03 0.03 0.02 0.02 0.01 0.01 0.00 0.00 0.00 0.00 0.00 0.00 0.00 0.00 0.00 0.00
0.00 0.00 0.00 0.00 0.00 0.00 0.00 0.00 0.00 0.00 0.00 0.00 0.00 0.00 0.00 0.00 0.01 0.01 0.01 0.01 0.01 0.02 0.02 0.03 0.03 0.03 0.03 0.03 0.03 0.03 0.02 0.02 0.01 0.01 0.00 0.00 0.00 0.00 0.00 0.00 0.00 0.00 0.00 0.00
0.00 0.00 0.00 0.00 0.00 0.00 0.00 0.00 0.00 0.00 0.00 0.00 0.00 0.00 0.00 0.00 0.00 0.01 0.01 0.01 0.01 0.02 0.02 0.03 0.03 0.03 0.03 0.03 0.03 0.03 0.02 0.01 0.01 0.00 0.00 0.00 0.00 0.00 0.00 0.00 0.00 0.00 0.00 0.00
0.00 0.00 0.00 0.00 0.00 0.00 0.00 0.00 0.00 0.00 0.00 0.00 0.00 0.00 0.00 0.00 0.00 0.00 0.01 0.01 0.02 0.02 0.02 0.03 0.03 0.03 0.02 0.02 0.02 0.02 0.01 0.01 0.00 0.00 0.00 0.00 0.00 0.00 0.00 0.00 0.00 0.00 0.00 0.00
0.00 0.00 0.00 0.00 0.00 0.00 0.00 0.00 0.00 0.00 0.00 0.00 0.00 0.00 0.00 0.00 0.00 0.00 0.00 0.01 0.01 0.02 0.02 0.02 0.02 0.02 0.02 0.02 0.01 0.01 0.00 0.00 0.00 0.00 0.00 0.00 0.00 0.00 0.00 0.00 0.00 0.00 0.00 0.00
0.00 0.00 0.00 0.00 0.00 0.00 0.00 0.00 0.00 0.00 0.00 0.00 0.00 0.00 0.00 0.00 0.00 0.00 0.00 0.01 0.01 0.02 0.02 0.02 0.03 0.02 0.02 0.01 0.01 0.00 0.00 0.00 0.00 0.00 0.00 0.00 0.00 0.00 0.00 0.00 0.00 0.00 0.00 0.00
0.00 0.00 0.00 0.00 0.00 0.00 0.00 0.00 0.00 0.00 0.00 0.00 0.00 0.00 0.00 0.00 0.00 0.00 0.00 0.01 0.01 0.02 0.03 0.04 0.03 0.03 0.02 0.01 0.00 0.00 0.00 0.00 0.00 0.00 0.00 0.00 0.00 0.00 0.00 0.00 0.00 0.00 0.00 0.00
0.00 0.00 0.00 0.00 0.00 0.00 0.00 0.00 0.00 0.00 0.00 0.00 0.00 0.00 0.00 0.00 0.00 0.00 0.00 0.01 0.02 0.03 0.04 0.05 0.05 0.04 0.02 0.01 0.00 0.00 0.00 0.00 0.00 0.00 0.00 0.00 0.00 0.00 0.00 0.00 0.00 0.00 0.00 0.00
0.00 0.00 0.00 0.00 0.00 0.00 0.00 0.00 0.00 0.00 0.00 0.00 0.00 0.00 0.00 0.00 0.00 0.00 0.01 0.01 0.02 0.04 0.05 0.06 0.05 0.03 0.02 0.01 0.00 0.00 0.00 0.00 0.00 0.00 0.00 0.00 0.00 0.00 0.00 0.00 0.00 0.00 0.00 0.00
0.00 0.00 0.00 0.00 0.00 0.00 0.00 0.00 0.00 0.00 0.00 0.00 0.00 0.00 0.00 0.00 0.00 0.01 0.01 0.02 0.04 0.06 0.06 0.05 0.04 0.03 0.02 0.01 0.01 0.01 0.01 0.00 0.00 0.00 0.00 0.00 0.00 0.00 0.00 0.00 0.00 0.00 0.00 0.00
0.00 0.00 0.00 0.00 0.00 0.00 0.00 0.00 0.00 0.00 0.00 0.00 0.00 0.00 0.00 0.00 0.01 0.02 0.04 0.04 0.05 0.05 0.05 0.05 0.04 0.04 0.03 0.03 0.03 0.02 0.01 0.01 0.00 0.00 0.00 0.00 0.00 0.00 0.00 0.00 0.00 0.00 0.00 0.00
0.00 0.00 0.00 0.00 0.00 0.00 0.00 0.00 0.00 0.00 0.00 0.00 0.00 0.00 0.00 0.00 0.01 0.02 0.04 0.05 0.07 0.06 0.06 0.06 0.06 0.05 0.05 0.04 0.04 0.02 0.02 0.01 0.00 0.00 0.00 0.00 0.00 0.00 0.00 0.00 0.00 0.00 0.00 0.00
0.00 0.00 0.00 0.00 0.00 0.00 0.00 0.00 0.00 0.00 0.00 0.00 0.00 0.00 0.00 0.00 0.01 0.02 0.04 0.05 0.08 0.09 0.09 0.09 0.09 0.08 0.07 0.05 0.04 0.03 0.01 0.00 0.00 0.00 0.00 0.00 0.00 0.00 0.00 0.00 0.00 0.00 0.00 0.00
0.00 0.00 0.00 0.00 0.00 0.00 0.00 0.00 0.00 0.00 0.00 0.00 0.00 0.00 0.00 0.00 0.01 0.02 0.04 0.06 0.09 0.10 0.11 0.11 0.10 0.08 0.06 0.05 0.04 0.02 0.01 0.00 0.00 0.00 0.00 0.00 0.00 0.00 0.00 0.00 0.00 0.00 0.00 0.00
0.00 0.00 0.00 0.00 0.00 0.00 0.00 0.00 0.00 0.00 0.00 0.00 0.00 0.00 0.00 0.00 0.01 0.02 0.03 0.05 0.09 0.12 0.13 0.12 0.10 0.08 0.06 0.04 0.02 0.00 0.00 0.00 0.00 0.00 0.00 0.00 0.00 0.00 0.00 0.00 0.00 0.00 0.00 0.00
0.00 0.00 0.00 0.00 0.00 0.00 0.00 0.00 0.00 0.00 0.00 0.00 0.00 0.00 0.00 0.00 0.01 0.02 0.04 0.07 0.10 0.11 0.11 0.09 0.07 0.06 0.04 0.02 0.00 0.00 0.00 0.00 0.00 0.00 0.00 0.00 0.00 0.00 0.00 0.00 0.00 0.00 0.00 0.00
0.00 0.00 0.00 0.00 0.00 0.00 0.00 0.00 0.00 0.00 0.00 0.00 0.00 0.00 0.00 0.01 0.03 0.03 0.03 0.06 0.08 0.09 0.09 0.08 0.06 0.05 0.03 0.01 0.00 0.00 0.00 0.00 0.00 0.00 0.00 0.00 0.00 0.00 0.00 0.00 0.00 0.00 0.00 0.00
0.00 0.00 0.00 0.00 0.00 0.00 0.00 0.00 0.00 0.00 0.00 0.00 0.00 0.00 0.01 0.02 0.04 0.03 0.03 0.04 0.05 0.06 0.07 0.07 0.06 0.03 0.01 0.00 0.00 0.00 0.00 0.00 0.00 0.00 0.00 0.00 0.00 0.00 0.00 0.00 0.00 0.00 0.00 0.00
0.00 0.00 0.00 0.00 0.00 0.00 0.00 0.00 0.00 0.00 0.00 0.00 0.00 0.01 0.02 0.04 0.07 0.06 0.05 0.05 0.07 0.10 0.11 0.09 0.05 0.02 0.00 0.00 0.00 0.00 0.00 0.00 0.00 0.00 0.00 0.00 0.00 0.00 0.00 0.00 0.00 0.00 0.00 0.00
0.00 0.00 0.00 0.00 0.00 0.00 0.00 0.00 0.00 0.00 0.00 0.01 0.02 0.03 0.05 0.08 0.11 0.12 0.11 0.11 0.12 0.13 0.10 0.06 0.02 0.00 0.00 0.00 0.00 0.00 0.00 0.00 0.00 0.00 0.00 0.00 0.00 0.00 0.00 0.00 0.00 0.00 0.00 0.00
0.00 0.00 0.00 0.00 0.00 0.00 0.00 0.00 0.00 0.00 0.01 0.02 0.03 0.06 0.12 0.17 0.18 0.17 0.16 0.15 0.13 0.10 0.05 0.02 0.00 0.00 0.00 0.00 0.00 0.00 0.00 0.00 0.00 0.00 0.00 0.00 0.00 0.00 0.00 0.00 0.00 0.00 0.00 0.00
0.00 0.00 0.01 0.01 0.01 0.00 0.01 0.01 0.02 0.03 0.04 0.05 0.08 0.14 0.20 0.20 0.17 0.13 0.10 0.07 0.04 0.02 0.01 0.00 0.00 0.00 0.00 0.00 0.00 0.00 0.00 0.00 0.00 0.00 0.00 0.00 0.00 0.00 0.00 0.00 0.00 0.00 0.00 0.00
0.00 0.01 0.03 0.03 0.03 0.05 0.05 0.06 0.07 0.10 0.14 0.15 0.18 0.20 0.17 0.11 0.07 0.04 0.02 0.01 0.00 0.00 0.00 0.00 0.00 0.00 0.00 0.00 0.00 0.00 0.00 0.00 0.00 0.00 0.00 0.00 0.00 0.00 0.00 0.00 0.00 0.00 0.00 0.00
0.01 0.03 0.08 0.11 0.12 0.15 0.20 0.23 0.24 0.28 0.33 0.27 0.18 0.10 0.06 0.03 0.02 0.00 0.00 0.00 0.00 0.00 0.00 0.00 0.00 0.00 0.00 0.00 0.00 0.00 0.00 0.00 0.00 0.00 0.00 0.00 0.00 0.00 0.00 0.00 0.00 0.00 0.00 0.00
MSLP
1012.21 1012.99 1013.54 1013.84 1013.96 1013.96 1013.92 1013.90 1013.94 1014.04 1014.14 1014.22 1014.22 1014.10 1013.88 1013.57 1013.25 1012.98 1012.84 1012.86 1013.06 1013.41 1013.86 1014.35 1014.80 1015.16 1015.42 1015.57 1015.65 1015.70 1015.79 1015.95 1016.19 1016.51 1016.89 1017.27 1017.62 1017.91 1018.11 1018.24 1018.31 1018.36 1018.40 1018.48
1012.49 1013.17 1013.61 1013.84 1013.92 1013.94 1013.97 1014.08 1014.26 1014.49 1014.72 1014.88 1014.90 1014.76 1014.48 1014.08 1013.67 1013.32 1013.12 1013.12 1013.31 1013.69 1014.18 1014.70 1015.18 1015.57 1015.83 1015.99 1016.07 1016.15 1016.27 1016.47 1016.76 1017.14 1017.56 1017.97 1018.33 1018.60 1018.77 1018.85 1018.86 1018.85 1018.85 1018.89
1012.44 1013.02 1013.36 1013.53 1013.61 1013.68 1013.82 1014.06 1014.39 1014.76 1015.09 1015.30 1015.32 1015.14 1014.76 1014.27 1013.76 1013.34 1013.10 1013.09 1013.32 1013.76 1014.32 1014.91 1015.46 1015.89 1016.19 1016.38 1016.49 1016.59 1016.74 1016.98 1017.32 1017.75 1018.20 1018.65 1019.02 1019.28 1019.42 1019.45 1019.42 1019.36 1019.31 1019.31
1012.10 1012.55 1012.81 1012.95 1013.06 1013.22 1013.49 1013.90 1014.39 1014.89 1015.30 1015.54 1015.53 1015.27 1014.79 1014.18 1013.58 1013.09 1012.82 1012.83 1013.12 1013.64 1014.30 1015.00 1015.64 1016.16 1016.53 1016.76 1016.91 1017.04 1017.22 1017.49 1017.86 1018.31 1018.79 1019.25 1019.63 1019.89 1020.01 1020.01 1019.94 1019.84 1019.75 1019.70
1011.56 1011.88 1012.07 1012.20 1012.36 1012.64 1013.08 1013.65 1014.30 1014.92 1015.41 1015.65 1015.60 1015.24 1014.65 1013.92 1013.22 1012.67 1012.38 1012.42 1012.78 1013.40 1014.19 1015.02 1015.79 1016.42 1016.87 1017.17 1017.37 1017.53 1017.73 1018.00 1018.38 1018.83 1019.32 1019.78 1020.15 1020.40 1020.51 1020.50 1020.40 1020.26 1020.14 1020.05
1010.94 1011.13 1011.25 1011.39 1011.63 1012.04 1012.64 1013.39 1014.19 1014.93 1015.47 1015.71 1015.60 1015.15 1014.44 1013.60 1012.80 1012.20 1011.90 1011.97 1012.41 1013.15 1014.08 1015.05 1015.96 1016.71 1017.27 1017.65 1017.89 1018.08 1018.28 1018.54 1018.90 1019.32 1019.78 1020.22 1020.57 1020.81 1020.91 1020.88 1020.76 1020.60 1020.44 1020.32
1010.39 1010.45 1010.51 1010.65 1010.97 1011.51 1012.26 1013.16 1014.09 1014.92 1015.50 1015.73 1015.56 1015.02 1014.21 1013.28 1012.41 1011.76 1011.47 1011.59 1012.11 1012.96 1014.01 1015.13 1016.18 1017.06 1017.73 1018.19 1018.48 1018.69 1018.88 1019.11 1019.41 1019.79 1020.19 1020.57 1020.89 1021.10 1021.18 1021.14 1021.01 1020.83 1020.65 1020.49
1010.01 1009.94 1009.93 1010.08 1010.46 1011.09 1011.96 1012.97 1014.00 1014.88 1015.47 1015.68 1015.46 1014.85 1013.97 1012.98 1012.06 1011.41 1011.13 1011.30 1011.90 1012.85 1014.03 1015.28 1016.46 1017.46 1018.23 1018.77 1019.11 1019.33 1019.50 1019.69 1019.93 1020.22 1020.54 1020.85 1021.11 1021.27 1021.32 1021.26 1021.12 1020.93 1020.73 1020.55
1009.86 1009.67 1009.60 1009.74 1010.14 1010.82 1011.74 1012.81 1013.86 1014.74 1015.32 1015.49 1015.23 1014.58 1013.67 1012.66 1011.75 1011.11 1010.88 1011.11 1011.78 1012.83 1014.11 1015.47 1016.76 1017.86 1018.73 1019.34 1019.73 1019.96 1020.11 1020.24 1020.40 1020.60 1020.83 1021.05 1021.22 1021.33 1021.33 1021.25 1021.09 1020.89 1020.68 1020.48
1009.93 1009.66 1009.53 1009.63 1010.02 1010.69 1011.59 1012.62 1013.63 1014.45 1014.97 1015.09 1014.80 1014.14 1013.23 1012.26 1011.40 1010.83 1010.67 1010.97 1011.72 1012.84 1014.20 1015.64 1017.02 1018.21 1019.15 1019.83 1020.26 1020.51 1020.64 1020.72 1020.81 1020.91 1021.03 1021.15 1021.24 1021.27 1021.23 1021.11 1020.94 1020.73 1020.51 1020.30
1010.20 1009.88 1009.70 1009.75 1010.07 1010.66 1011.46 1012.37 1013.26 1013.96 1014.38 1014.43 1014.11 1013.46 1012.61 1011.72 1010.97 1010.51 1010.45 1010.85 1011.68 1012.86 1014.27 1015.76 1017.18 1018.43 1019.43 1020.16 1020.63 1020.90 1021.02 1021.07 1021.09 1021.11 1021.14 1021.16 1021.16 1021.12 1021.02 1020.87 1020.67 1020.45 1020.23 1020.03
1010.62 1010.27 1010.06 1010.05 1010.27 1010.72 1011.35 1012.07 1012.75 1013.28 1013.56 1013.52 1013.17 1012.57 1011.81 1011.06 1010.45 1010.14 1010.22 1010.72 1011.61 1012.84 1014.28 1015.78 1017.23 1018.50 1019.53 1020.29 1020.80 1021.10 1021.23 1021.26 1021.24 1021.19 1021.14 1021.08 1020.99 1020.88 1020.73 1020.54 1020.33 1020.11 1019.90 1019.71
1011.11 1010.78 1010.55 1010.48 1010.57 1010.85 1011.25 1011.72 1012.16 1012.47 1012.57 1012.44 1012.08 1011.53 1010.90 1010.31 1009.89 1009.76 1009.98 1010.59 1011.56 1012.81 1014.24 1015.73 1017.16 1018.42 1019.46 1020.24 1020.78 1021.10 1021.24 1021.27 1021.23 1021.14 1021.03 1020.90 1020.75 1020.58 1020.39 1020.18 1019.96 1019.74 1019.54 1019.37
1011.65 1011.38 1011.14 1011.00 1010.97 1011.04 1011.20 1011.40 1011.56 1011.63 1011.55 1011.32 1010.95 1010.48 1009.99 1009.59 1009.38 1009.44 1009.82 1010.53 1011.55 1012.81 1014.21 1015.65 1017.02 1018.25 1019.26 1020.04 1020.59 1020.93 1021.09 1021.13 1021.08 1020.98 1020.83 1020.66 1020.47 1020.26 1020.04 1019.81 1019.59 1019.39 1019.21 1019.07
1012.23 1012.02 1011.80 1011.60 1011.44 1011.32 1011.23 1011.15 1011.04 1010.87 1010.63 1010.32 1009.94 1009.56 1009.23 1009.03 1009.02 1009.27 1009.80 1010.61 1011.67 1012.91 1014.25 1015.61 1016.90 1018.04 1019.00 1019.76 1020.30 1020.64 1020.83 1020.88 1020.84 1020.73 1020.57 1020.38 1020.17 1019.94 1019.71 1019.48 1019.28 1019.09 1018.95 1018.84
1012.83 1012.69 1012.48 1012.24 1011.96 1011.67 1011.35 1011.02 1010.68 1010.31 1009.93 1009.55 1009.20 1008.92 1008.74 1008.73 1008.93 1009.35 1010.01 1010.90 1011.96 1013.16 1014.43 1015.68 1016.85 1017.90 1018.78 1019.47 1019.98 1020.32 1020.52 1020.58 1020.56 1020.46 1020.31 1020.12 1019.90 1019.67 1019.45 1019.24 1019.05 1018.90 1018.79 1018.71
1013.47 1013.37 1013.17 1012.88 1012.51 1012.07 1011.57 1011.04 1010.51 1009.99 1009.52 1009.11 1008.80 1008.62 1008.60 1008.77 1009.14 1009.72 1010.48 1011.42 1012.48 1013.62 1014.78 1015.90 1016.94 1017.86 1018.64 1019.26 1019.72 1020.04 1020.23 1020.30 1020.29 1020.21 1020.07 1019.90 1019.70 1019.49 1019.29 1019.10 1018.94 1018.83 1018.74 1018.70
1014.11 1014.03 1013.82 1013.49 1013.03 1012.48 1011.85 1011.19 1010.53 1009.92 1009.40 1009.01 1008.76 1008.70 1008.82 1009.15 1009.67 1010.36 1011.21 1012.16 1013.20 1014.26 1015.30 1016.29 1017.19 1017.98 1018.64 1019.16 1019.56 1019.85 1020.02 1020.09 1020.10 1020.03 1019.92 1019.77 1019.60 1019.43 1019.25 1019.10 1018.98 1018.89 1018.83 1018.80
1014.74 1014.63 1014.38 1014.00 1013.47 1012.84 1012.13 1011.40 1010.69 1010.06 1009.55 1009.20 1009.04 1009.09 1009.35 1009.81 1010.44 1011.22 1012.11 1013.07 1014.05 1015.03 1015.95 1016.81 1017.57 1018.22 1018.77 1019.20 1019.53 1019.77 1019.92 1020.00 1020.01 1019.97 1019.88 1019.77 1019.64 1019.50 1019.36 1019.25 1019.15 1019.08 1019.04 1019.00
1015.30 1015.12 1014.81 1014.36 1013.79 1013.11 1012.37 1011.62 1010.92 1010.32 1009.86 1009.60 1009.54 1009.70 1010.07 1010.64 1011.36 1012.19 1013.09 1014.03 1014.96 1015.84 1016.66 1017.39 1018.03 1018.56 1019.00 1019.35 1019.62 1019.81 1019.94 1020.02 1020.04 1020.03 1019.98 1019.90 1019.81 1019.71 1019.62 1019.53 1019.46 1019.40 1019.35 1019.29
1015.73 1015.46 1015.07 1014.56 1013.94 1013.25 1012.52 1011.80 1011.16 1010.63 1010.28 1010.12 1010.17 1010.43 1010.90 1011.54 1012.31 1013.17 1014.07 1014.97 1015.83 1016.63 1017.35 1017.97 1018.50 1018.94 1019.29 1019.57 1019.79 1019.95 1020.07 1020.15 1020.19 1020.21 1020.20 1020.17 1020.12 1020.06 1020.00 1019.93 1019.86 1019.80 1019.72 1019.63
1016.01 1015.64 1015.16 1014.60 1013.96 1013.27 1012.58 1011.94 1011.39 1010.97 1010.73 1010.69 1010.85 1011.21 1011.75 1012.44 1013.23 1014.08 1014.96 1015.81 1016.61 1017.33 1017.97 1018.50 1018.95 1019.31 1019.60 1019.83 1020.01 1020.16 1020.28 1020.37 1020.44 1020.49 1020.52 1020.53 1020.53 1020.51 1020.46 1020.41 1020.34 1020.24 1020.13 1019.98
1016.12 1015.65 1015.11 1014.50 1013.86 1013.21 1012.60 1012.06 1011.63 1011.34 1011.23 1011.30 1011.56 1011.99 1012.58 1013.29 1014.08 1014.91 1015.73 1016.53 1017.26 1017.92 1018.48 1018.95 1019.34 1019.65 1019.89 1020.10 1020.26 1020.40 1020.53 1020.65 1020.75 1020.84 1020.92 1020.98 1021.01 1021.01 1020.99 1020.92 1020.83 1020.70 1020.53 1020.31
1016.08 1015.54 1014.95 1014.33 1013.72 1013.15 1012.63 1012.21 1011.91 1011.76 1011.78 1011.96 1012.29 1012.78 1013.39 1014.10 1014.86 1015.64 1016.41 1017.14 1017.81 1018.40 1018.90 1019.32 1019.66 1019.94 1020.16 1020.35 1020.52 1020.67 1020.82 1020.96 1021.11 1021.24 1021.36 1021.46 1021.52 1021.54 1021.52 1021.44 1021.31 1021.12 1020.88 1020.59
1015.92 1015.35 1014.76 1014.17 1013.63 1013.15 1012.75 1012.47 1012.31 1012.30 1012.42 1012.69 1013.10 1013.61 1014.22 1014.90 1015.61 1016.33 1017.03 1017.69 1018.29 1018.82 1019.27 1019.64 1019.95 1020.21 1020.42 1020.60 1020.78 1020.94 1021.12 1021.30 1021.48 1021.65 1021.81 1021.94 1022.03 1022.06 1022.02 1021.91 1021.73 1021.48 1021.16 1020.79
1015.70 1015.14 1014.59 1014.08 1013.64 1013.28 1013.02 1012.88 1012.87 1012.98 1013.21 1013.55 1013.99 1014.51 1015.10 1015.72 1016.37 1017.01 1017.64 1018.22 1018.75 1019.21 1019.62 1019.96 1020.24 1020.48 1020.68 1020.87 1021.05 1021.24 1021.44 1021.64 1021.86 1022.07 1022.26 1022.41 1022.50 1022.53 1022.47 1022.32 1022.08 1021.77 1021.38 1020.92
Thickness
5724 5713 5708 5714 5717 5718 5720 5717 5716 5725 5740 5734 5726 5724 5727 5734 5735 5735 5737 5741 5741 5738 5733 5730 5726 5722 5718 5713 5710 5706 5703 5700 5697 5693 5688 5681 5674 5669 5665 5660 5656 5652 5648 5644
5704 5704 5718 5720 5717 5713 5711 5708 5709 5721 5733 5726 5717 5714 5719 5725 5727 5729 5729 5729 5728 5724 5723 5720 5717 5713 5709 5704 5700 5696 5692 5689 5686 5682 5676 5670 5662 5656 5651 5647 5644 5639 5635 5631
5696 5709 5720 5712 5708 5704 5703 5702 5707 5710 5717 5716 5710 5703 5708 5716 5722 5723 5724 5723 5721 5718 5714 5711 5707 5702 5698 5694 5690 5687 5682 5678 5673 5669 5664 5658 5652 5645 5639 5634 5630 5626 5622 5617
5694 5709 5711 5706 5703 5701 5692 5708 5707 5705 5695 5687 5698 5677 5696 5705 5710 5715 5716 5716 5715 5712 5707 5702 5697 5692 5688 5683 5680 5676 5671 5665 5661 5657 5652 5647 5640 5632 5625 5621 5617 5614 5610 5605
5693 5705 5701 5696 5703 5703 5702 5713 5705 5700 5691 5681 5684 5674 5678 5695 5700 5709 5714 5714 5711 5707 5701 5695 5689 5684 5679 5674 5669 5665 5659 5653 5648 5644 5639 5634 5627 5621 5615 5610 5606 5602 5597 5592
5701 5711 5707 5706 5714 5710 5709 5703 5689 5678 5670 5663 5680 5669 5670 5690 5705 5712 5713 5712 5707 5701 5694 5687 5680 5675 5669 5663 5658 5653 5647 5641 5636 5632 5628 5623 5617 5611 5605 5600 5594 5589 5583 5577
5688 5698 5707 5711 5703 5704 5699 5677 5654 5655 5645 5654 5683 5671 5676 5703 5716 5719 5715 5708 5701 5694 5686 5678 5671 5665 5658 5650 5645 5639 5634 5627 5623 5619 5614 5610 5605 5600 5594 5588 5582 5576 5569 5563
5666 5674 5698 5704 5701 5691 5685 5674 5650 5643 5643 5657 5674 5665 5686 5704 5711 5714 5710 5703 5694 5685 5677 5669 5661 5654 5646 5639 5632 5626 5621 5615 5611 5607 5603 5598 5594 5588 5583 5577 5572 5565 5558 5551
5662 5671 5701 5706 5709 5699 5679 5669 5678 5658 5654 5647 5654 5668 5687 5701 5703 5706 5702 5695 5687 5677 5668 5658 5650 5642 5636 5628 5621 5615 5610 5605 5600 5596 5591 5587 5582 5578 5573 5567 5561 5554 5547 5540
5671 5668 5691 5702 5704 5700 5693 5680 5657 5648 5639 5635 5650 5660 5673 5690 5693 5696 5695 5690 5682 5670 5659 5648 5640 5632 5625 5618 5611 5605 5599 5594 5589 5584 5579 5575 5570 5567 5562 5556 5550 5542 5534 5527
5672 5662 5675 5687 5686 5685 5679 5672 5666 5649 5647 5639 5636 5654 5688 5694 5696 5695 5694 5687 5675 5663 5651 5641 5631 5622 5615 5607 5600 5593 5587 5582 5576 5571 5567 5564 5559 5555 5550 5544 5537 5530 5522 5515
5658 5650 5651 5669 5686 5691 5686 5679 5662 5651 5649 5642 5639 5655 5696 5693 5695 5692 5686 5679 5668 5656 5645 5634 5623 5613 5606 5598 5590 5582 5576 5570 5565 5560 5556 5552 5549 5543 5538 5532 5525 5517 5510 5504
5648 5637 5633 5645 5659 5670 5673 5674 5667 5655 5647 5636 5635 5655 5685 5687 5687 5686 5679 5671 5660 5649 5637 5626 5616 5607 5598 5589 5581 5572 5564 5559 5554 5549 5544 5540 5535 5531 5525 5519 5513 5506 5500 5494
5638 5627 5624 5628 5637 5649 5654 5661 5662 5652 5639 5637 5644 5658 5672 5674 5675 5675 5671 5663 5652 5641 5631 5619 5608 5598 5588 5578 5570 5562 5554 5548 5543 5539 5534 5529 5525 5519 5513 5508 5502 5496 5490 5485
5620 5616 5622 5625 5633 5638 5642 5647 5650 5648 5645 5641 5651 5657 5667 5669 5669 5667 5661 5652 5643 5633 5623 5612 5600 5588 5577 5567 5559 5551 5545 5539 5535 5529 5525 5520 5515 5509 5503 5497 5492 5487 5482 5477
5601 5604 5608 5612 5623 5626 5628 5638 5641 5644 5648 5647 5651 5654 5665 5662 5658 5653 5649 5643 5635 5625 5616 5604 5591 5579 5568 5559 5550 5543 5536 5531 5526 5520 5515 5511 5505 5499 5494 5489 5484 5479 5473 5468
5586 5588 5590 5588 5604 5608 5608 5629 5637 5641 5647 5646 5642 5651 5650 5646 5648 5647 5642 5636 5629 5618 5606 5594 5582 5570 5559 5549 5541 5533 5527 5522 5517 5512 5507 5502 5496 5491 5486 5482 5476 5471 5465 5458
5574 5574 5569 5571 5585 5581 5607 5624 5629 5631 5636 5637 5639 5641 5638 5638 5634 5631 5627 5621 5613 5603 5591 5579 5568 5557 5546 5538 5530 5524 5518 5514 5509 5503 5498 5494 5488 5483 5479 5473 5468 5462 5454 5446
5563 5563 5558 5557 5563 5576 5596 5607 5608 5610 5616 5626 5626 5623 5617 5615 5610 5604 5605 5601 5593 5584 5573 5562 5552 5542 5534 5527 5520 5514 5510 5506 5501 5496 5490 5486 5481 5476 5471 5464 5456 5448 5440 5431
5551 5551 5550 5548 5554 5561 5577 5586 5592 5595 5595 5607 5608 5605 5602 5604 5596 5586 5583 5579 5570 5560 5551 5543 5535 5528 5522 5516 5510 5506 5503 5498 5492 5487 5482 5478 5473 5467 5459 5450 5442 5433 5426 5417
5536 5533 5536 5537 5539 5550 5563 5568 5578 5572 5576 5581 5587 5588 5588 5585 5582 5570 5565 5558 5550 5541 5534 5527 5520 5515 5511 5506 5502 5499 5495 5489 5484 5479 5474 5468 5462 5455 5446 5437 5428 5420 5413 5406
5524 5523 5525 5524 5527 5536 5552 5553 5553 5555 5557 5562 5565 5565 5562 5561 5557 5553 5547 5540 5534 5526 5519 5514 5508 5504 5501 5498 5496 5492 5486 5481 5476 5470 5463 5456 5450 5443 5433 5425 5417 5409 5402 5396
5513 5515 5516 5520 5525 5534 5537 5539 5545 5546 5547 5549 5548 5549 5551 5547 5542 5538 5532 5526 5521 5515 5509 5505 5502 5498 5495 5493 5489 5484 5478 5473 5467 5460 5452 5445 5437 5429 5421 5414 5406 5399 5393 5388
5513 5514 5511 5515 5526 5531 5533 5537 5541 5543 5542 5541 5540 5540 5539 5535 5530 5524 5519 5513 5509 5505 5502 5499 5497 5493 5490 5486 5482 5476 5471 5465 5458 5450 5441 5434 5426 5418 5411 5404 5397 5390 5385 5381
5507 5510 5511 5516 5523 5526 5529 5531 5535 5535 5534 5530 5527 5526 5525 5523 5518 5514 5509 5504 5501 5498 5496 5494 5491 5488 5483 5479 5474 5470 5464 5458 5450 5441 5433 5424 5415 5408 5401 5395 5389 5384 5379 5375
5502 5504 5508 5513 5515 5516 5517 5520 5523 5523 5520 5517 5515 5513 5512 5512 5508 5505 5500 5497 5495 5493 5490 5488 5485 5481 5476 5472 5467 5462 5456 5450 5442 5433 5423 5415 5406 5399 5392 5387 5383 5379 5375 5371